Flag for Denmark Weather past 2 weeks in Aarhus, Denmark

Now
54 °F

Partly sunny.


Feels Like: 48 °F
Forecast: 46 / 57 °F
Wind: 20 mph from West

Location: Tirstrup

Current Time: May 26, 2015 at 12:33:48 PM

Latest Report: May 26, 2015 at 11:50 AM


Visibility: N/A

Pressure: 29.89 "Hg

Humidity: 58%

Dew point: 39 °F

Location of AarhusLocation

Historic Weather in Aarhus — Graph

°F

Aarhus temperature yesterday

Maximum temperature yesterday: 59 °F (at 3:20 PM)
Minimum temperature yesterday: 48 °F (at 5:20 AM)
Average temperature yesterday: 52 °F

Past Weeks' High & Low Weather Summary

 TemperatureHumidityPressure
High63 °F (May 11, 6:50 PM)94% (May 19, 12:50 AM)30.21 "Hg (May 19, 12:50 AM)
Low37 °F (May 15, 4:20 AM)31% (May 15, 3:20 PM)29.45 "Hg (May 19, 2:50 AM)
Average51 °F70%29.92 "Hg
* Reported May 11 11:20 AM — May 26 11:20 AM, Aarhus, Weather by CustomWeather, © 2015

Note: Actual official high and low records may vary slightly from our data, if they occured in-between our weather recording intervals... More about our weather records

Advertising

Aarhus weather history for previous 24 hours

 ConditionsComfort  
Time TempWeatherWind HumidityBarometerVisibility
11:20 AM
Tue, May 26
54 °FPartly sunny.16 mph54%29.89 "HgN/A
10:50 AM54 °FPartly sunny.13 mph54%29.89 "HgN/A
10:20 AM54 °FPartly sunny.12 mph58%29.89 "HgN/A
9:50 AM54 °FPartly sunny.14 mph54%29.89 "HgN/A
9:20 AM52 °FPartly sunny.14 mph62%29.89 "HgN/A
8:50 AM50 °FPartly sunny.14 mph67%29.89 "HgN/A
8:20 AM50 °FPartly sunny.10 mph67%29.89 "HgN/A
7:50 AM48 °FPartly sunny.7 mph76%29.89 "HgN/A
7:20 AM46 °FPartly sunny.7 mph82%29.89 "HgN/A
6:50 AM46 °FPartly sunny.9 mph82%29.89 "HgN/A
6:20 AM45 °FScattered clouds.7 mph81%29.89 "HgN/A
5:50 AM45 °FPassing clouds.5 mph81%29.89 "HgN/A
5:20 AM45 °FPassing clouds.6 mph81%29.89 "HgN/A
4:50 AM43 °FPassing clouds.8 mph87%29.89 "HgN/A
4:20 AM43 °FPassing clouds.8 mph87%29.89 "HgN/A
3:50 AM45 °FPassing clouds.8 mph81%29.89 "HgN/A
3:20 AM46 °FPassing clouds.8 mph76%29.89 "HgN/A
2:50 AM46 °FPassing clouds.10 mph76%29.89 "HgN/A
2:20 AM46 °FPassing clouds.9 mph76%29.89 "HgN/A
1:50 AM46 °FPassing clouds.7 mph76%29.89 "HgN/A
1:20 AM46 °FPassing clouds.7 mph76%29.89 "HgN/A
12:50 AM46 °FPassing clouds.7 mph76%29.89 "HgN/A
12:20 AM46 °FPassing clouds.6 mph76%29.89 "HgN/A
11:20 PM
Mon, May 25
48 °FPassing clouds.6 mph71%29.89 "HgN/A
10:50 PM48 °FPassing clouds.7 mph71%29.89 "HgN/A
10:20 PM50 °FOvercast.6 mph67%29.89 "HgN/A
9:50 PM50 °FOvercast.3 mph67%29.89 "HgN/A
9:20 PM50 °FOvercast.7 mph67%29.89 "HgN/A
8:50 PM52 °FOvercast.7 mph62%29.89 "HgN/A
8:20 PM52 °FBroken clouds.7 mph67%29.89 "HgN/A
7:50 PM52 °FMore clouds than sun.9 mph67%29.89 "HgN/A
7:20 PM52 °FPartly sunny.9 mph62%29.89 "HgN/A
6:50 PM52 °FPartly sunny.9 mph62%29.89 "HgN/A
6:20 PM52 °FPartly sunny.10 mph58%29.89 "HgN/A
5:50 PM54 °FBroken clouds.16 mph54%29.89 "HgN/A
5:20 PM57 °FPartly sunny.9 mph48%29.86 "HgN/A
4:50 PM55 °FPartly sunny.16 mph55%29.89 "HgN/A
4:20 PM59 °FPartly sunny.10 mph45%29.86 "HgN/A
3:50 PM57 °FPartly sunny.6 mph48%29.86 "HgN/A
3:20 PM59 °FPassing clouds.8 mph42%29.86 "HgN/A
2:50 PM57 °FPartly sunny.6 mph44%29.86 "HgN/A
2:20 PM57 °FScattered clouds.6 mph44%29.89 "HgN/A
1:50 PM55 °FPartly sunny.13 mph55%29.89 "HgN/A
1:20 PM57 °FScattered clouds.8 mph48%29.89 "HgN/A
12:50 PM55 °FScattered clouds.7 mph51%29.89 "HgN/A
12:20 PM55 °FScattered clouds.8 mph51%29.89 "HgN/A
Weather by CustomWeather, © 2015

See weather overviewHow to use our weather pages